TimeCDT,TemperatureF,Dew PointF,Humidity,Sea Level PressureIn,VisibilityMPH,Wind Direction,Wind SpeedMPH,Gust SpeedMPH,PrecipitationIn,Events,Conditions,WindDirDegrees,DateUTC
12:53 AM,64.9,53.1,65,29.83,10.0,NNW,4.6,-,N/A,,Partly Cloudy,330,2012-10-02 05:53:00
1:53 AM,66.0,54.0,65,29.83,10.0,North,5.8,-,N/A,,Clear,350,2012-10-02 06:53:00
2:53 AM,66.0,54.0,65,29.84,10.0,North,6.9,-,N/A,,Overcast,350,2012-10-02 07:53:00
3:53 AM,66.9,54.0,63,29.84,10.0,North,6.9,-,N/A,,Mostly Cloudy,350,2012-10-02 08:53:00
4:53 AM,66.9,54.0,63,29.85,10.0,NNW,6.9,-,N/A,,Partly Cloudy,340,2012-10-02 09:53:00
5:53 AM,66.0,55.0,68,29.86,10.0,North,5.8,-,N/A,,Clear,10,2012-10-02 10:53:00
6:53 AM,64.9,55.0,70,29.89,10.0,North,9.2,-,N/A,,Clear,360,2012-10-02 11:53:00
7:53 AM,64.9,55.0,70,29.90,10.0,North,9.2,-,N/A,,Clear,350,2012-10-02 12:53:00
8:53 AM,66.0,55.9,70,29.92,10.0,NNW,8.1,-,N/A,,Clear,340,2012-10-02 13:53:00
9:53 AM,70.0,55.9,61,29.94,10.0,North,8.1,-,N/A,,Clear,350,2012-10-02 14:53:00
10:53 AM,71.1,55.0,57,29.95,10.0,North,9.2,-,N/A,,Partly Cloudy,360,2012-10-02 15:53:00
11:53 AM,73.9,55.9,53,29.94,10.0,North,6.9,-,N/A,,Clear,350,2012-10-02 16:53:00
12:53 PM,75.0,50.0,41,29.93,10.0,North,9.2,-,N/A,,Clear,10,2012-10-02 17:53:00
1:53 PM,75.9,53.1,45,29.92,10.0,North,5.8,-,N/A,,Clear,10,2012-10-02 18:53:00
2:53 PM,75.9,53.1,45,29.91,10.0,Variable,4.6,-,N/A,,Partly Cloudy,0,2012-10-02 19:53:00
3:53 PM,75.0,48.0,38,29.91,10.0,North,9.2,-,N/A,,Clear,350,2012-10-02 20:53:00
4:53 PM,73.9,50.0,43,29.91,10.0,ENE,4.6,-,N/A,,Clear,60,2012-10-02 21:53:00
5:53 PM,73.0,52.0,48,29.91,10.0,NE,3.5,-,N/A,,Mostly Cloudy,50,2012-10-02 22:53:00
7:53 PM,68.0,57.0,68,29.93,10.0,Calm,Calm,-,N/A,,Clear,0,2012-10-03 00:53:00
8:53 PM,66.0,57.9,75,29.94,10.0,SE,4.6,-,N/A,,Clear,140,2012-10-03 01:53:00
9:53 PM,64.0,57.9,80,29.95,10.0,South,3.5,-,N/A,,Clear,170,2012-10-03 02:53:00
10:53 PM,63.0,57.0,81,29.96,10.0,SSW,4.6,-,N/A,,Clear,200,2012-10-03 03:53:00
11:53 PM,63.0,57.0,81,29.96,10.0,South,4.6,-,N/A,,Clear,170,2012-10-03 04:53:00